EW7318 Weather Reports


time (UTC)temp
F
wind
direction
speed
knots
gust
knots
rain 1hr
in
rain 24hr
in
rain mn
in
humidity
%
barometer
mb
20260507075248 51 140 0.9 7.0 0.20 0.25 0.20 88 1033.1
20260507074748 52 141 2.6 7.0 0.18 0.23 0.18 88 1033.7
20260507074245 53 211 2.6 7.0 0.14 0.19 0.15 87 1033.7
20260507073747 53 352 3.5 7.0 0.12 0.17 0.12 87 1034.1
20260507073245 54 152 0.9 6.1 0.09 0.14 0.09 87 1034.1
20260507072742 55 92 0.9 5.2 0.06 0.11 0.06 86 1033.7
20260507072241 55 134 1.7 5.2 0.04 0.09 0.04 86 1033.1
20260507071739 56 55 0.9 7.0 0.00 0.05 0.01 84 1033.1
20260507071237 56 61 1.7 7.0 0.00 0.05 0.00 83 1032.7
20260507070737 56 83 0.9 7.0 0.00 0.05 0.00 83 1032.0
20260507070234 56 322 1.7 6.1 0.00 0.05 0.00 83 1032.7
20260507065232 56 86 2.6 3.5 0.00 0.05 0.00 83 1032.4
20260507064731 57 150 0.0 3.5 0.00 0.05 0.00 83 1032.4
20260507064228 57 95 0.9 2.6 0.00 0.05 0.00 83 1032.7
20260507063729 57 147 0.0 2.6 0.00 0.05 0.00 83 1032.7
20260507063226 57 132 0.9 2.6 0.00 0.05 0.00 82 1033.1
20260507062725 57 110 0.0 5.2 0.00 0.05 0.00 82 1032.4
20260507061721 57 103 0.0 5.2 0.00 0.05 0.00 83 1032.7
20260507061220 57 298 3.5 5.2 0.00 0.05 0.00 83 1032.7
20260507060720 58 296 2.6 3.5 0.00 0.05 0.00 83 1032.7
20260507060216 58 137 0.0 3.5 0.00 0.05 0.00 83 1032.7
20260507055715 58 139 0.9 5.2 0.00 0.05 0.00 83 1032.7
20260507055213 58 131 0.9 5.2 0.00 0.05 0.00 83 1033.1
20260507054712 58 50 1.7 2.6 0.00 0.05 0.00 82 1033.1
20260507054211 58 102 0.0 2.6 0.00 0.05 0.00 82 1033.1
20260507053206 58 130 0.0 5.2 0.00 0.05 0.00 83 1033.1
20260507052204 58 121 0.9 7.0 0.00 0.05 0.00 84 1033.1
20260507051214 58 112 0.9 3.5 0.00 0.05 0.00 88 1033.4
20260507050700 59 180 0.0 3.5 0.00 0.05 0.00 88 1033.4
20260507050158 59 142 0.0 3.5 0.00 0.05 0.00 89 1033.1
20260507045658 59 145 0.0 2.6 0.00 0.05 0.00 89 1033.4
20260507045156 59 169 0.0 2.6 0.00 0.05 0.00 89 1033.4
20260507044655 59 208 0.0 2.6 0.00 0.05 0.00 89 1033.4
20260507044152 59 301 0.9 2.6 0.00 0.05 0.00 89 1033.4
20260507043150 59 137 0.0 5.2 0.00 0.05 0.00 89 1033.1
20260507042147 58 140 0.0 3.5 0.00 0.05 0.00 89 1033.4
20260507041646 58 130 0.9 3.5 0.00 0.05 0.00 89 1033.4
20260507041143 58 150 0.0 2.6 0.00 0.05 0.00 89 1033.4
20260507040643 58 207 0.0 2.6 0.00 0.05 0.00 89 1033.1
20260507040141 58 190 0.9 3.5 0.00 0.05 0.00 89 1033.4
20260507035152 58 149 0.9 3.5 0.00 0.05 0.05 89 1033.1
20260507034637 58 137 0.0 5.2 0.00 0.05 0.05 89 1033.1
20260507034136 58 310 1.7 5.2 0.00 0.05 0.05 90 1033.4
20260507033634 58 241 0.9 5.2 0.00 0.05 0.05 90 1033.1
20260507033132 58 139 0.9 5.2 0.00 0.05 0.05 90 1033.4
20260507032630 58 165 2.6 3.5 0.00 0.05 0.05 90 1033.4
20260507031627 58 139 0.0 3.5 0.00 0.05 0.05 90 1033.7
20260507031125 58 138 3.5 3.5 0.00 0.05 0.05 90 1033.4
20260507030638 58 153 0.0 1.7 0.00 0.05 0.05 90 1033.4
20260507030122 58 191 0.0 3.5 0.00 0.05 0.05 90 1033.1
20260507025120 58 155 0.0 3.5 0.00 0.05 0.05 90 1033.4
20260507024116 57 150 0.9 3.5 0.00 0.05 0.05 90 1033.7
20260507023114 57 160 0.0 5.2 0.00 0.05 0.05 90 1033.1
20260507022612 57 235 3.5 5.2 0.00 0.05 0.05 90 1033.7
20260507022111 57 156 2.6 6.1 0.00 0.05 0.05 90 1033.4
20260507021611 57 140 0.0 6.1 0.00 0.05 0.05 90 1033.4
20260507021107 57 198 3.5 3.5 0.00 0.05 0.05 90 1033.7
20260507020606 57 209 1.7 5.2 0.00 0.05 0.05 90 1033.4
20260507020118 57 160 0.0 5.2 0.00 0.05 0.05 90 1033.4
20260507015102 57 217 0.0 5.2 0.00 0.05 0.05 90 1033.4
20260507014602 57 158 3.5 5.2 0.00 0.05 0.05 91 1033.4
20260507013558 57 132 0.0 3.5 0.00 0.05 0.05 90 1033.7
20260507013056 57 143 0.0 3.5 0.00 0.05 0.05 91 1033.7
20260507012052 57 170 0.9 5.2 0.00 0.05 0.05 91 1033.7
20260507011552 57 155 2.6 5.2 0.00 0.05 0.05 91 1033.7
20260507010602 57 144 0.0 1.7 0.00 0.05 0.05 91 1033.7
20260507010059 57 230 0.0 6.1 0.00 0.05 0.05 91 1033.7
20260507005546 56 219 1.7 6.1 0.00 0.05 0.05 91 1034.1
20260507005043 56 146 0.0 5.2 0.00 0.05 0.05 91 1033.7
20260507004542 56 191 3.5 5.2 0.00 0.05 0.05 91 1033.7
20260507004041 56 338 0.9 7.0 0.00 0.05 0.05 91 1033.7
20260507003541 56 194 2.6 7.0 0.00 0.05 0.05 91 1033.7
20260507003037 56 180 0.0 6.1 0.00 0.05 0.05 91 1033.7
20260507002535 56 263 3.5 6.1 0.00 0.05 0.05 91 1033.7
20260507002033 56 124 0.9 6.1 0.00 0.05 0.05 91 1033.7
20260507001532 56 190 1.7 6.1 0.00 0.05 0.05 91 1033.7
20260507001031 56 222 3.5 7.0 0.00 0.05 0.05 91 1033.4
20260507000542 56 177 0.9 8.7 0.00 0.05 0.05 91 1033.7
20260507000027 56 239 0.9 8.7 0.01 0.05 0.05 91 1033.7
20260506235526 56 151 2.6 6.1 0.01 0.05 0.05 91 1033.7
20260506235025 56 151 1.7 6.1 0.01 0.05 0.05 90 1033.7
20260506234524 56 184 2.6 6.1 0.01 0.05 0.05 90 1033.7
20260506234023 56 144 0.9 7.0 0.01 0.05 0.05 90 1033.7
20260506233521 56 172 3.5 7.0 0.01 0.05 0.05 89 1033.7
20260506232518 56 179 1.7 6.1 0.01 0.05 0.05 89 1033.7
20260506232016 56 189 1.7 5.2 0.01 0.05 0.05 89 1033.7
20260506231515 56 225 2.6 5.2 0.01 0.05 0.05 88 1033.7
20260506231014 56 204 0.9 5.2 0.01 0.05 0.05 88 1034.1
20260506230010 57 199 1.7 5.2 0.00 0.04 0.04 88 1033.7
20260506225510 57 150 0.9 6.1 0.00 0.04 0.04 88 1033.7
20260506225008 57 201 3.5 8.7 0.01 0.04 0.04 88 1033.7
20260506224507 57 256 3.5 8.7 0.01 0.04 0.04 88 1033.4
20260506224005 57 250 4.3 5.2 0.01 0.04 0.04 87 1033.7
20260506223505 57 169 0.9 3.5 0.01 0.04 0.04 87 1033.4
20260506223002 57 221 3.5 5.2 0.01 0.04 0.04 87 1033.4
20260506222501 57 148 0.9 5.2 0.01 0.04 0.04 87 1033.7
20260506221959 57 151 0.0 7.0 0.01 0.04 0.04 87 1033.7
20260506220455 57 212 1.7 6.1 0.01 0.04 0.04 87 1033.4
20260506215954 57 84 1.7 7.0 0.01 0.04 0.04 87 1033.7
20260506214950 57 148 0.0 12.2 0.01 0.03 0.03 87 1034.1
20260506214449 58 172 2.6 7.0 0.01 0.03 0.03 87 1034.1
20260506213947 58 122 3.5 9.6 0.01 0.03 0.03 86 1034.1
20260506213447 58 211 7.8 9.6 0.01 0.03 0.03 86 1034.1
20260506212945 58 156 1.7 7.8 0.01 0.03 0.03 86 1034.1
20260506212444 58 226 1.7 7.8 0.01 0.03 0.03 86 1034.4
20260506211942 58 148 0.9 5.2 0.01 0.03 0.03 85 1034.4
20260506211442 58 151 3.5 7.0 0.01 0.03 0.03 85 1034.4
20260506210939 58 174 1.7 7.0 0.01 0.03 0.03 85 1034.4
20260506210451 59 141 1.7 7.0 0.01 0.03 0.03 85 1034.4
20260506205937 59 198 3.5 7.0 0.01 0.03 0.03 85 1034.4
20260506204934 59 162 5.2 12.2 0.00 0.02 0.02 84 1034.4
20260506204433 59 315 1.7 12.2 0.00 0.02 0.02 84 1034.4
20260506203430 59 187 7.0 7.8 0.00 0.02 0.02 84 1034.4
20260506202927 59 109 0.9 7.8 0.01 0.02 0.02 84 1034.8
20260506202426 59 169 0.9 14.8 0.01 0.02 0.02 84 1034.4
20260506201925 59 149 1.7 14.8 0.01 0.02 0.02 84 1034.8
20260506201424 59 160 2.6 7.0 0.02 0.02 0.02 84 1034.8
20260506200922 60 204 4.3 6.1 0.02 0.02 0.02 84 1034.8
20260506200423 60 146 3.5 7.8 0.02 0.02 0.02 84 1034.4
20260506195919 60 225 3.5 7.8 0.02 0.02 0.02 84 1034.8
20260506195419 60 217 1.7 7.0 0.02 0.02 0.02 84 1034.8
20260506194917 60 233 2.6 7.8 0.02 0.02 0.02 84 1034.8
20260506194416 60 138 1.7 7.8 0.02 0.02 0.02 84 1034.8
20260506193914 60 264 2.6 7.0 0.02 0.02 0.02 84 1034.8
20260506193412 60 298 1.7 7.0 0.02 0.02 0.02 83 1035.1
20260506192911 60 184 0.9 11.3 0.01 0.01 0.01 82 1035.1
20260506192410 60 211 0.0 11.3 0.01 0.01 0.01 81 1035.4
20260506191908 61 178 0.9 7.8 0.00 0.00 0.00 80 1035.1
20260506191408 61 145 0.9 13.0 0.00 0.00 0.00 78 1034.8
20260506190905 61 151 1.7 13.0 0.00 0.00 0.00 77 1035.1
20260506185902 62 237 2.6 14.8 0.00 0.00 0.00 75 1035.1
20260506185400 63 135 0.9 14.8 0.00 0.00 0.00 72 1034.8
20260506184859 63 200 3.5 11.3 0.00 0.00 0.00 71 1035.4
20260506183856 64 180 2.6 18.2 0.00 0.00 0.00 70 1035.1
20260506183355 64 222 3.5 13.9 0.00 0.00 0.00 69 1035.4
20260506182854 64 215 9.6 13.9 0.00 0.00 0.00 69 1035.4
20260506182354 64 171 3.5 7.8 0.00 0.00 0.00 68 1035.1
20260506181850 64 152 1.7 8.7 0.00 0.00 0.00 68 1035.4
20260506181349 65 188 0.9 8.7 0.00 0.00 0.00 68 1035.8
20260506180847 65 204 2.6 8.7 0.00 0.00 0.00 67 1035.4
20260506175846 65 174 3.5 12.2 0.00 0.00 0.00 67 1035.4
20260506175344 65 175 1.7 9.6 0.00 0.00 0.00 67 1035.4
20260506174842 66 153 1.7 13.0 0.00 0.00 0.00 67 1035.8
20260506174341 66 177 7.0 13.0 0.00 0.00 0.00 66 1035.8
20260506173838 66 187 6.1 15.6 0.00 0.00 0.00 65 1035.8
20260506173337 66 140 3.5 15.6 0.00 0.00 0.00 65 1036.1
20260506172836 67 125 5.2 12.2 0.00 0.00 0.00 64 1036.1
20260506172333 67 231 5.2 20.9 0.00 0.00 0.00 64 1036.1
20260506171831 67 249 6.1 20.9 0.00 0.00 0.00 64 1036.4
20260506171331 68 248 4.3 12.2 0.00 0.00 0.00 63 1036.1
20260506170828 67 165 4.3 11.3 0.00 0.00 0.00 63 1036.1
20260506170328 68 203 4.3 20.0 0.00 0.00 0.00 62 1035.8
20260506165826 68 124 3.5 20.0 0.00 0.00 0.00 62 1036.1
20260506164319 68 286 4.3 13.9 0.00 0.00 0.00 63 1036.1
20260506163817 69 162 2.6 18.2 0.00 0.00 0.00 61 1036.4
20260506163317 69 165 2.6 18.2 0.00 0.00 0.00 62 1036.4
20260506162812 68 191 2.6 16.5 0.00 0.00 0.00 62 1036.4
20260506162313 68 222 7.8 13.0 0.00 0.00 0.00 62 1036.8
20260506161812 67 198 5.2 13.0 0.00 0.00 0.00 63 1036.8
20260506161310 68 147 5.2 9.6 0.00 0.00 0.00 62 1036.4
20260506160807 69 122 2.6 7.0 0.00 0.00 0.00 61 1036.4
20260506160307 68 175 1.7 7.0 0.00 0.00 0.00 62 1036.8
20260506155806 69 268 3.5 11.3 0.00 0.00 0.00 61 1036.8
20260506155306 69 192 5.2 11.3 0.00 0.00 0.00 61 1036.8
20260506154802 70 125 2.6 11.3 0.00 0.00 0.00 61 1037.1
20260506154301 69 163 3.5 11.3 0.00 0.00 0.00 61 1036.8
20260506153800 69 185 4.3 12.2 0.00 0.00 0.00 61 1036.8
20260506152757 69 115 2.6 11.3 0.00 0.00 0.00 60 1037.1
20260506152256 70 243 6.1 11.3 0.00 0.00 0.00 60 1037.1
20260506151253 70 172 1.7 12.2 0.00 0.00 0.00 61 1037.1
20260506150751 69 167 4.3 12.2 0.00 0.00 0.00 60 1036.8
20260506150251 69 217 3.5 11.3 0.00 0.00 0.00 61 1037.1
20260506145747 69 191 6.1 9.6 0.00 0.00 0.00 62 1037.5
20260506145247 69 162 5.2 9.6 0.00 0.00 0.00 62 1037.1
20260506144244 69 150 2.6 7.0 0.00 0.00 0.00 61 1037.1
20260506143742 68 77 3.5 7.0 0.00 0.00 0.00 63 1036.8
20260506143242 67 168 1.7 7.8 0.00 0.00 0.00 64 1037.1
20260506142741 67 183 1.7 7.8 0.00 0.00 0.00 64 1037.1
20260506142238 67 140 3.5 7.0 0.00 0.00 0.00 64 1037.1
20260506141735 67 248 4.3 13.0 0.00 0.00 0.00 64 1037.1
20260506141234 67 91 3.5 13.0 0.00 0.00 0.00 64 1037.5
20260506140733 67 263 0.0 11.3 0.00 0.00 0.00 64 1037.1
20260506140234 66 159 3.5 11.3 0.00 0.00 0.00 65 1037.1
20260506135730 67 119 2.6 7.8 0.00 0.00 0.00 64 1037.1
20260506135230 67 194 2.6 11.3 0.00 0.00 0.00 64 1037.1
20260506134727 67 170 4.3 11.3 0.00 0.00 0.00 64 1037.1
20260506134226 68 209 4.3 13.9 0.00 0.00 0.00 62 1036.8
20260506133725 67 187 1.7 13.9 0.00 0.00 0.00 63 1037.5
20260506133223 68 159 0.9 11.3 0.00 0.00 0.00 63 1037.5
20260506132721 67 200 2.6 9.6 0.00 0.00 0.00 64 1037.5
20260506131719 66 228 3.5 11.3 0.00 0.00 0.00 66 1037.8
20260506131217 66 96 3.5 9.6 0.00 0.00 0.00 67 1037.5
20260506130717 65 226 3.5 9.6 0.00 0.00 0.00 68 1037.8
20260506130214 65 144 3.5 7.0 0.00 0.00 0.00 68 1037.5
20260506125712 65 139 0.9 6.1 0.00 0.00 0.00 69 1037.5
20260506124708 63 28 2.6 11.3 0.00 0.00 0.00 71 1037.5
20260506124220 63 200 0.9 11.3 0.00 0.00 0.00 72 1037.5
20260506123705 63 229 4.3 9.6 0.00 0.00 0.00 72 1037.8
20260506123203 62 143 2.6 9.6 0.00 0.00 0.00 73 1037.5
20260506122702 62 173 1.7 6.1 0.00 0.00 0.00 73 1037.5
20260506122202 62 200 2.6 11.3 0.00 0.00 0.00 74 1037.5
20260506121659 61 279 2.6 11.3 0.00 0.00 0.00 75 1037.5
20260506121158 61 143 2.6 9.6 0.00 0.00 0.00 75 1037.5
20260506120655 61 207 4.3 8.7 0.00 0.00 0.00 76 1037.5
20260506120154 60 230 3.5 8.7 0.00 0.00 0.00 77 1037.8
20260506115653 60 219 0.9 7.0 0.00 0.00 0.00 78 1037.8
20260506115151 60 130 0.9 7.0 0.00 0.00 0.00 78 1037.8
20260506114649 59 142 3.5 12.2 0.00 0.00 0.00 78 1037.8
20260506114150 59 160 5.2 12.2 0.00 0.00 0.00 78 1037.8
20260506113146 59 164 1.7 11.3 0.00 0.00 0.00 79 1038.1
20260506112644 59 161 1.7 11.3 0.00 0.00 0.00 79 1038.1
20260506112143 59 180 2.6 6.1 0.00 0.00 0.00 80 1037.8
20260506111641 58 158 0.0 7.0 0.00 0.00 0.00 81 1038.1
20260506111153 58 192 1.7 6.1 0.00 0.00 0.00 81 1038.1
20260506110652 58 197 2.6 3.5 0.00 0.00 0.00 82 1038.1
20260506110137 57 136 2.6 3.5 0.00 0.00 0.00 82 1038.1
20260506105636 57 148 0.9 6.1 0.00 0.00 0.00 82 1037.8
20260506105136 57 112 0.9 6.1 0.00 0.00 0.00 82 1038.1
20260506104632 57 137 1.7 3.5 0.00 0.00 0.00 82 1037.8
20260506104131 57 215 2.6 5.2 0.00 0.00 0.00 82 1037.8
20260506103630 57 148 0.9 5.2 0.00 0.00 0.00 82 1037.8
20260506103129 57 138 0.0 7.0 0.00 0.00 0.00 82 1037.8
20260506102625 57 177 0.9 7.0 0.00 0.00 0.00 82 1037.8
20260506101623 57 134 1.7 3.5 0.00 0.00 0.00 82 1037.8
20260506101123 57 161 2.6 3.5 0.00 0.00 0.00 83 1037.8
20260506100620 57 149 0.9 5.2 0.00 0.00 0.00 82 1037.5
20260506095617 57 194 0.9 7.0 0.00 0.00 0.00 82 1037.5
20260506095118 57 148 1.7 6.1 0.00 0.00 0.00 82 1037.8
20260506094614 57 148 0.9 6.1 0.00 0.00 0.00 82 1037.5
20260506094112 57 210 2.6 5.2 0.00 0.00 0.00 82 1037.5
20260506093610 57 145 0.9 2.6 0.00 0.00 0.00 81 1037.5
20260506093110 57 162 0.9 5.2 0.00 0.00 0.00 81 1037.5
20260506092107 58 175 1.7 8.7 0.00 0.00 0.00 81 1037.5
20260506091604 58 228 1.7 5.2 0.00 0.00 0.00 80 1037.8
20260506091102 58 136 1.7 6.1 0.00 0.00 0.00 80 1037.5
20260506090559 58 209 2.6 6.1 0.00 0.00 0.00 80 1037.8
20260506090059 58 295 1.7 8.7 0.00 0.00 0.00 80 1037.5
20260506085556 58 259 3.5 8.7 0.00 0.00 0.00 79 1037.8
20260506085056 58 217 0.9 8.7 0.00 0.00 0.00 79 1037.8
20260506084553 59 229 6.1 9.6 0.00 0.00 0.00 79 1037.8
20260506083551 59 135 2.6 8.7 0.00 0.00 0.00 79 1038.1
20260506083050 59 24 4.3 8.7 0.00 0.00 0.00 78 1038.1
20260506082048 59 205 4.3 13.9 0.00 0.00 0.00 78 1037.8
20260506081545 59 132 2.6 7.0 0.00 0.00 0.00 78 1037.8
20260506081044 59 142 3.5 12.2 0.00 0.00 0.00 78 1037.8
20260506080541 59 155 3.5 12.2 0.00 0.00 0.00 77 1037.8